Location: Newark
(51.5870°N, 0.4428°W)
Time: 03:32:00
(UTC+00:00)

ISS - Visible Passes

Search period start: 20 July 2019 00:00
Search period end: 30 July 2019 00:00
Orbit: 409 x 418 km, 51.6° (Epoch: 20 July)

Date Brightness Start Highest point End Pass type
(mag) Time Alt. Az. Time Alt. Az. Time Alt. Az.
20 Jul -3.8 01:03:14 10° W 01:06:31 54° SSW 01:09:06 15° SE visible
20 Jul -1.7 02:40:39 10° WSW 02:45:51 - SSE 02:41:12 12° WSW visible
20 Jul -3.4 21:00:47 10° SW 21:03:59 44° SSE 21:07:11 10° E visible
20 Jul -3.8 22:37:12 10° W 22:40:33 89° NNW 22:43:54 10° E visible
21 Jul -3.9 00:13:55 10° W 00:17:14 70° SSW 00:18:01 47° SE visible
21 Jul -3.9 21:47:53 10° WSW 21:51:14 83° S 21:54:35 10° E visible
21 Jul -3.9 23:24:36 10° W 23:27:56 83° S 23:29:24 31° ESE visible
22 Jul -1.6 01:01:24 10° W 01:02:10 15° W 01:02:10 15° W visible
22 Jul -3.8 20:58:35 10° WSW 21:01:55 70° SSE 21:05:15 10° E visible
22 Jul -3.9 22:35:15 10° W 22:38:36 89° N 22:41:10 16° E visible
23 Jul -2.6 00:11:59 10° W 00:13:58 29° WSW 00:13:58 29° WSW visible
23 Jul -3.8 21:45:53 10° W 21:49:15 87° N 21:52:35 10° E visible
23 Jul -3.8 23:22:36 10° W 23:25:53 58° SSW 23:25:54 58° SSW visible
24 Jul -3.8 20:56:31 10° W 20:59:53 89° S 21:03:14 10° E visible
24 Jul -3.9 22:33:13 10° W 22:36:34 74° SSW 22:37:56 33° ESE visible
25 Jul -1.4 00:10:09 10° W 00:10:44 13° W 00:10:44 13° W visible
25 Jul -3.9 21:43:51 10° W 21:47:13 86° S 21:50:01 14° E visible
25 Jul -2.5 23:20:38 10° W 23:22:49 29° WSW 23:22:49 29° WSW visible
26 Jul -3.8 20:54:28 10° W 20:57:49 88° N 21:01:10 10° E visible
26 Jul -3.5 22:31:10 10° W 22:34:25 47° SSW 22:34:56 43° S visible
27 Jul -3.7 21:41:46 10° W 21:45:05 63° SSW 21:47:04 22° ESE visible
27 Jul -1.5 23:18:54 10° W 23:19:53 15° WSW 23:19:53 15° WSW visible
28 Jul -3.8 20:52:21 10° W 20:55:43 78° SSW 20:59:02 10° ESE visible
28 Jul -2.6 22:29:13 10° W 22:32:03 27° SSW 22:32:03 27° SSW visible
29 Jul -3.0 21:39:41 10° W 21:42:49 38° SSW 21:44:15 24° SSE visible
